When you browse on this site, cookies collect data to enhance your experience and personalize the content and advertising you see.
Visit our Privacy Policy to learn more. By continuing to use the site, you agree to this use of cookies and data.
  • In Italy
  • List of Countries
  • For 7 days
  • Water Temperature
  • Satellite Maps
  • Weather Map
  • Weather Widgets
  • user-avatar
    Login

    Hourly Weather Durres

    Today, 10 December, Monday

    Time Temperature Precipitation Wind Pressure Humidity
    00:00 +9°C° 1.2 mm 7 mps 753 mmHg 81%
    01:00 +9°C° 1.2 mm 7 mps 753 mmHg 82%
    02:00 +9°C° 0.9 mm 7 mps 753 mmHg 85%
    03:00 +9°C° 0.9 mm 8 mps 753 mmHg 88%
    04:00 +9°C° 0.9 mm 8 mps 752 mmHg 91%
    05:00 +9°C° 0.2 mm 8 mps 753 mmHg 90%
    06:00 +9°C° 0.2 mm 8 mps 753 mmHg 89%
    07:00 +8°C° 0.2 mm 9 mps 753 mmHg 89%
    08:00 +9°C° 0 mm 8 mps 754 mmHg 82%
    09:00 +10°C° 0 mm 7 mps 754 mmHg 76%
    10:00 +10°C° 0 mm 7 mps 755 mmHg 69%
    11:00 +11°C° 0 mm 6 mps 755 mmHg 63%
    12:00 +13°C° 0 mm 6 mps 755 mmHg 57%
    13:00 +14°C° 0 mm 5 mps 755 mmHg 52%
    14:00 +13°C° 0 mm 5 mps 756 mmHg 56%
    15:00 +12°C° 0 mm 5 mps 756 mmHg 61%
    16:00 +10°C° 0 mm 5 mps 756 mmHg 65%
    17:00 +9°C° 0 mm 5 mps 757 mmHg 68%
    18:00 +8°C° 0 mm 4 mps 757 mmHg 70%
    19:00 +7°C° 0 mm 4 mps 757 mmHg 73%
    20:00 +7°C° 0 mm 5 mps 758 mmHg 73%
    21:00 +6°C° 0 mm 5 mps 758 mmHg 73%
    22:00 +6°C° 0 mm 5 mps 758 mmHg 73%
    23:00 +6°C° 0 mm 5 mps 758 mmHg 73%

    Tomorrow, 11 December, Tuesday

    Time Temperature Precipitation Wind Pressure Humidity
    00:00 +5°C° 0 mm 5 mps 759 mmHg 73%
    01:00 +5°C° 0 mm 5 mps 759 mmHg 72%
    02:00 +5°C° 0 mm 5 mps 759 mmHg 72%
    03:00 +5°C° 0 mm 5 mps 759 mmHg 72%
    04:00 +3°C° 0 mm 5 mps 759 mmHg 72%
    05:00 +3°C° 0 mm 5 mps 759 mmHg 72%
    06:00 +3°C° 0 mm 5 mps 759 mmHg 72%
    07:00 +3°C° 0 mm 5 mps 760 mmHg 71%
    08:00 +5°C° 0 mm 5 mps 760 mmHg 65%
    09:00 +7°C° 0 mm 5 mps 760 mmHg 58%
    10:00 +8°C° 0 mm 4 mps 760 mmHg 52%
    11:00 +10°C° 0 mm 4 mps 760 mmHg 48%
    12:00 +10°C° 0 mm 4 mps 760 mmHg 45%
    13:00 +11°C° 0 mm 3 mps 760 mmHg 42%
    14:00 +10°C° 0 mm 3 mps 760 mmHg 45%
    15:00 +9°C° 0 mm 3 mps 760 mmHg 49%
    16:00 +8°C° 0 mm 2 mps 760 mmHg 53%
    17:00 +7°C° 0 mm 2 mps 761 mmHg 55%
    18:00 +7°C° 0 mm 2 mps 761 mmHg 57%
    19:00 +6°C° 0 mm 2 mps 761 mmHg 59%
    20:00 +5°C° 0.2 mm 3 mps 761 mmHg 60%
    21:00 +5°C° 0.2 mm 3 mps 762 mmHg 62%
    22:00 +4°C° 0.2 mm 4 mps 762 mmHg 63%
    23:00 +4°C° 0.1 mm 3 mps 762 mmHg 63%

    Day after tomorrow, 12 December, Wednesday

    Time Temperature Precipitation Wind Pressure Humidity
    00:00 +4°C° 0.1 mm 3 mps 762 mmHg 64%
    01:00 +4°C° 0.1 mm 3 mps 762 mmHg 65%
    02:00 +3°C° 0 mm 3 mps 762 mmHg 66%
    03:00 +3°C° 0 mm 3 mps 762 mmHg 67%
    04:00 +3°C° 0 mm 3 mps 763 mmHg 68%
    05:00 +2°C° 0 mm 3 mps 763 mmHg 68%
    06:00 +2°C° 0 mm 3 mps 763 mmHg 68%
    07:00 +2°C° 0 mm 3 mps 764 mmHg 68%
    08:00 +4°C° 0 mm 3 mps 764 mmHg 60%
    09:00 +6°C° 0 mm 2 mps 764 mmHg 53%
    10:00 +8°C° 0 mm 2 mps 764 mmHg 45%
    11:00 +8°C° 0 mm 2 mps 764 mmHg 41%
    12:00 +8°C° 0 mm 2 mps 764 mmHg 37%
    13:00 +10°C° 0 mm 1 mps 764 mmHg 32%
    14:00 +9°C° 0 mm 1 mps 763 mmHg 36%
    15:00 +8°C° 0 mm 1 mps 763 mmHg 40%
    16:00 +7°C° 0 mm 1 mps 763 mmHg 43%
    17:00 +5°C° 0 mm 2 mps 764 mmHg 44%
    18:00 +5°C° 0 mm 2 mps 764 mmHg 44%
    19:00 +4°C° 0 mm 2 mps 764 mmHg 44%
    20:00 +3°C° 0 mm 3 mps 764 mmHg 44%
    21:00 +3°C° 0 mm 3 mps 764 mmHg 43%
    22:00 +3°C° 0 mm 4 mps 764 mmHg 42%
    23:00 +4°C° 0 mm 4 mps 764 mmHg 42%

    13 December, Thursday

    Time Temperature Precipitation Wind Pressure Humidity
    00:00 +4°C° 0 mm 4 mps 763 mmHg 41%
    01:00 +4°C° 0 mm 4 mps 763 mmHg 40%
    02:00 +4°C° 0.1 mm 4 mps 763 mmHg 38%
    03:00 +3°C° 0.1 mm 5 mps 762 mmHg 37%
    04:00 +3°C° 0.1 mm 5 mps 762 mmHg 36%
    05:00 +3°C° 0.2 mm 5 mps 762 mmHg 37%
    06:00 +3°C° 0.2 mm 6 mps 762 mmHg 38%
    07:00 +3°C° 0.2 mm 7 mps 762 mmHg 39%
    08:00 +4°C° 0.3 mm 6 mps 762 mmHg 42%
    09:00 +5°C° 0.3 mm 6 mps 761 mmHg 44%
    10:00 +7°C° 0.3 mm 6 mps 761 mmHg 47%
    11:00 +7°C° 0.3 mm 6 mps 761 mmHg 54%
    12:00 +7°C° 0.3 mm 6 mps 760 mmHg 61%
    13:00 +7°C° 0.3 mm 6 mps 760 mmHg 68%
    14:00 +7°C° 0.9 mm 6 mps 760 mmHg 72%
    15:00 +7°C° 0.9 mm 5 mps 760 mmHg 75%
    16:00 +6°C° 0.9 mm 5 mps 760 mmHg 79%
    17:00 +6°C° 0.4 mm 4 mps 760 mmHg 79%
    18:00 +6°C° 0.4 mm 4 mps 760 mmHg 79%
    19:00 +6°C° 0.4 mm 4 mps 760 mmHg 79%
    20:00 +7°C° 0.5 mm 5 mps 760 mmHg 80%
    21:00 +7°C° 0.5 mm 5 mps 760 mmHg 81%
    22:00 +7°C° 0.5 mm 5 mps 760 mmHg 82%
    23:00 +7°C° 0.7 mm 6 mps 759 mmHg 84%

    14 December, Friday

    Time Temperature Precipitation Wind Pressure Humidity
    00:00 +7°C° 0.7 mm 6 mps 759 mmHg 85%
    01:00 +6°C° 0.7 mm 7 mps 758 mmHg 87%
    02:00 +6°C° 0.9 mm 7 mps 758 mmHg 86%
    03:00 +7°C° 0.9 mm 8 mps 757 mmHg 86%
    04:00 +7°C° 0.9 mm 8 mps 757 mmHg 86%
    05:00 +7°C° 0.6 mm 9 mps 756 mmHg 85%
    06:00 +7°C° 0.6 mm 9 mps 756 mmHg 85%
    07:00 +7°C° 0.6 mm 9 mps 755 mmHg 85%
    08:00 +8°C° 0.3 mm 10 mps 755 mmHg 83%
    09:00 +9°C° 0.3 mm 10 mps 755 mmHg 80%
    10:00 +11°C° 0.3 mm 10 mps 755 mmHg 78%
    11:00 +12°C° 0.9 mm 11 mps 754 mmHg 78%
    12:00 +12°C° 0.9 mm 11 mps 753 mmHg 77%
    13:00 +13°C° 0.9 mm 11 mps 752 mmHg 77%
    14:00 +12°C° 2.2 mm 11 mps 752 mmHg 81%
    15:00 +11°C° 2.2 mm 11 mps 752 mmHg 85%
    16:00 +9°C° 2.2 mm 10 mps 751 mmHg 88%
    17:00 +10°C° 2.2 mm 9 mps 751 mmHg 90%
    18:00 +10°C° 2.2 mm 8 mps 751 mmHg 91%
    19:00 +9°C° 2.2 mm 7 mps 751 mmHg 93%
    20:00 +9°C° 0.6 mm 7 mps 751 mmHg 91%
    21:00 +9°C° 0.6 mm 6 mps 751 mmHg 89%
    22:00 +9°C° 0.6 mm 6 mps 751 mmHg 87%
    23:00 +9°C° 0.3 mm 5 mps 752 mmHg 86%

    15 December, Saturday

    Time Temperature Precipitation Wind Pressure Humidity
    00:00 +9°C° 0.3 mm 5 mps 752 mmHg 85%
    01:00 +10°C° 0.3 mm 4 mps 752 mmHg 84%
    02:00 +8°C° 0.3 mm 4 mps 752 mmHg 84%
    03:00 +8°C° 0.3 mm 4 mps 752 mmHg 84%
    04:00 +8°C° 0.3 mm 4 mps 752 mmHg 85%
    05:00 +8°C° 0.3 mm 4 mps 752 mmHg 84%
    06:00 +8°C° 0.3 mm 4 mps 752 mmHg 84%
    07:00 +9°C° 0.3 mm 3 mps 752 mmHg 83%
    08:00 +8°C° 0.2 mm 4 mps 753 mmHg 80%
    09:00 +10°C° 0.2 mm 4 mps 753 mmHg 78%
    10:00 +11°C° 0.2 mm 4 mps 754 mmHg 75%
    11:00 +10°C° 0.1 mm 5 mps 754 mmHg 73%
    12:00 +12°C° 0.1 mm 5 mps 754 mmHg 71%
    13:00 +11°C° 0.1 mm 6 mps 754 mmHg 69%
    14:00 +10°C° 0.1 mm 6 mps 755 mmHg 72%
    15:00 +10°C° 0.1 mm 6 mps 755 mmHg 74%
    16:00 +9°C° 0.1 mm 7 mps 756 mmHg 77%
    17:00 +8°C° 0 mm 7 mps 756 mmHg 77%
    18:00 +8°C° 0 mm 7 mps 757 mmHg 77%
    19:00 +7°C° 0 mm 6 mps 757 mmHg 78%
    20:00 +5°C° 0 mm 6 mps 758 mmHg 77%
    21:00 +5°C° 0 mm 6 mps 758 mmHg 76%
    22:00 +5°C° 0 mm 6 mps 759 mmHg 76%
    23:00 +4°C° 0 mm 6 mps 759 mmHg 75%
    Show more